H2SAT (HEINRICH HERTZ)

Last updated on Sun Jun 21 2026 00:03:09 GMT+0000 (Coordinated Universal Time)

1 57213U 23093A 26170.96441058 -.00000004 00000+0 00000+0 0 9991 2 57213 0.0547 104.6262 0000924 92.6961 58.7472 1.00267176 10942
UTC large
Height (km)
Speed (km/s)
/
Latitude / Longitude
Inclination (degrees)
Orbital Period (minutes)
Azimuth
Elevation
Range (km)
Doppler Factor

Next 0 passes for location: London (51.5072 / 0.1276)

No passes found over London.
H2SAT (HEINRICH HERTZ)